| time (UTC) | temp F | wind direction | speed MPH | gust MPH | rain 1hr in | rain 24hr in | rain mn in | humidity % | barometer mb |
| 20260504180013 | 78 | 192 | 8.0 | 12.0 | 0.00 | 0.00 | 0.00 | 52 | 1005.0 |
| 20260504175512 | 78 | 199 | 6.0 | 12.0 | 0.00 | 0.00 | 0.00 | 52 | 1006.0 |
| 20260504175015 | 78 | 217 | 6.0 | 11.0 | 0.00 | 0.00 | 0.00 | 53 | 1006.0 |
| 20260504174513 | 77 | 179 | 5.0 | 10.0 | 0.00 | 0.00 | 0.00 | 52 | 1006.0 |
| 20260504174016 | 76 | 134 | 4.0 | 7.0 | 0.00 | 0.00 | 0.00 | 56 | 1006.0 |
| 20260504173514 | 75 | 157 | 7.0 | 9.0 | 0.00 | 0.00 | 0.00 | 55 | 1006.0 |
| 20260504173013 | 75 | 144 | 4.0 | 7.0 | 0.00 | 0.00 | 0.00 | 54 | 1006.0 |
| 20260504172517 | 75 | 152 | 4.0 | 9.0 | 0.00 | 0.00 | 0.00 | 53 | 1006.0 |
| 20260504172014 | 73 | 138 | 3.0 | 6.0 | 0.00 | 0.00 | 0.00 | 56 | 1006.0 |
| 20260504171513 | 71 | 150 | 5.0 | 9.0 | 0.00 | 0.00 | 0.00 | 61 | 1006.0 |
| 20260504171012 | 69 | 143 | 2.0 | 5.0 | 0.00 | 0.00 | 0.00 | 64 | 1007.0 |
| 20260504170513 | 68 | 155 | 3.0 | 4.0 | 0.00 | 0.00 | 0.00 | 66 | 1007.0 |
| 20260504151017 | 69 | 51 | 1.0 | 2.0 | 0.00 | 0.00 | 0.00 | 64 | 1008.0 |
| 20260504150516 | 70 | 205 | 0.0 | 0.0 | 0.00 | 0.00 | 0.00 | 64 | 1008.0 |
| 20260504141017 | 69 | 150 | 3.0 | 6.0 | 0.00 | 0.00 | 0.00 | 64 | 1008.0 |
| 20260504140517 | 68 | 176 | 2.0 | 5.0 | 0.00 | 0.00 | 0.00 | 65 | 1008.0 |
| 20260504130517 | 65 | 156 | 2.0 | 5.0 | 0.00 | 0.00 | 0.00 | 71 | 1009.0 |
| 20260504110514 | 56 | 0 | 0.0 | 0.0 | 0.00 | 0.00 | 0.00 | 86 | 1009.0 |
| 20260504100514 | 60 | 190 | 2.0 | 2.0 | 0.00 | 0.00 | 0.00 | 76 | 1008.0 |
| 20260504081515 | 61 | 191 | 1.0 | 2.0 | 0.00 | 0.00 | 0.00 | 72 | 1008.0 |
| 20260504081015 | 61 | 173 | 1.0 | 2.0 | 0.00 | 0.00 | 0.00 | 72 | 1008.0 |
| 20260504080516 | 61 | 0 | 0.0 | 0.0 | 0.00 | 0.00 | 0.00 | 72 | 1008.0 |
| 20260504050514 | 65 | 205 | 7.0 | 10.0 | 0.00 | 0.00 | 0.00 | 61 | 1008.0 |
| 20260504050014 | 65 | 217 | 5.0 | 9.0 | 0.00 | 0.00 | 0.00 | 60 | 1008.0 |
| 20260504045512 | 66 | 214 | 6.0 | 9.0 | 0.00 | 0.00 | 0.00 | 60 | 1008.0 |
| 20260504045014 | 66 | 212 | 6.0 | 8.0 | 0.00 | 0.00 | 0.00 | 60 | 1009.0 |
| 20260504044512 | 66 | 211 | 7.0 | 9.0 | 0.00 | 0.00 | 0.00 | 60 | 1009.0 |
| 20260504044013 | 66 | 208 | 5.0 | 7.0 | 0.00 | 0.00 | 0.00 | 59 | 1009.0 |
| 20260504043512 | 66 | 222 | 6.0 | 8.0 | 0.00 | 0.00 | 0.00 | 59 | 1009.0 |
| 20260504043013 | 66 | 217 | 7.0 | 11.0 | 0.00 | 0.00 | 0.00 | 59 | 1009.0 |
| 20260504042514 | 66 | 219 | 5.0 | 8.0 | 0.00 | 0.00 | 0.00 | 58 | 1009.0 |
| 20260504042014 | 67 | 213 | 5.0 | 6.0 | 0.00 | 0.00 | 0.00 | 58 | 1009.0 |
| 20260504041513 | 67 | 222 | 7.0 | 11.0 | 0.00 | 0.00 | 0.00 | 58 | 1009.0 |
| 20260504041012 | 67 | 221 | 6.0 | 11.0 | 0.00 | 0.00 | 0.00 | 58 | 1009.0 |
| 20260504040513 | 67 | 228 | 6.0 | 7.0 | 0.00 | 0.00 | 0.00 | 57 | 1010.0 |
| 20260504040012 | 67 | 220 | 5.0 | 9.0 | 0.00 | 0.00 | 0.00 | 57 | 1010.0 |
| 20260504035512 | 67 | 218 | 6.0 | 9.0 | 0.00 | 0.00 | 0.00 | 56 | 1010.0 |
| 20260504035012 | 67 | 223 | 7.0 | 13.0 | 0.00 | 0.00 | 0.00 | 56 | 1010.0 |
| 20260504034515 | 67 | 216 | 8.0 | 11.0 | 0.00 | 0.00 | 0.00 | 56 | 1010.0 |
| 20260504034013 | 67 | 226 | 3.0 | 9.0 | 0.00 | 0.00 | 0.00 | 56 | 1010.0 |
| 20260504033513 | 67 | 226 | 7.0 | 9.0 | 0.00 | 0.00 | 0.00 | 55 | 1010.0 |
| 20260504033013 | 67 | 228 | 3.0 | 4.0 | 0.00 | 0.00 | 0.00 | 55 | 1010.0 |
| 20260504032512 | 67 | 216 | 5.0 | 8.0 | 0.00 | 0.00 | 0.00 | 55 | 1010.0 |
| 20260504032013 | 67 | 222 | 6.0 | 9.0 | 0.00 | 0.00 | 0.00 | 55 | 1010.0 |
| 20260504031514 | 67 | 215 | 7.0 | 9.0 | 0.00 | 0.00 | 0.00 | 55 | 1010.0 |
| 20260504031015 | 67 | 218 | 6.0 | 10.0 | 0.00 | 0.00 | 0.00 | 55 | 1010.0 |
| 20260504030513 | 67 | 216 | 6.0 | 9.0 | 0.00 | 0.00 | 0.00 | 54 | 1010.0 |
| 20260504030013 | 67 | 221 | 6.0 | 7.0 | 0.00 | 0.00 | 0.00 | 54 | 1010.0 |
| 20260504025513 | 68 | 216 | 6.0 | 9.0 | 0.00 | 0.00 | 0.00 | 54 | 1010.0 |
| 20260504025012 | 68 | 207 | 4.0 | 6.0 | 0.00 | 0.00 | 0.00 | 53 | 1010.0 |
| 20260504024513 | 68 | 211 | 5.0 | 7.0 | 0.00 | 0.00 | 0.00 | 53 | 1010.0 |
| 20260504024013 | 68 | 209 | 7.0 | 9.0 | 0.00 | 0.00 | 0.00 | 52 | 1010.0 |
| 20260504023513 | 68 | 210 | 5.0 | 9.0 | 0.00 | 0.00 | 0.00 | 53 | 1010.0 |
| 20260504023013 | 68 | 204 | 4.0 | 5.0 | 0.00 | 0.00 | 0.00 | 52 | 1010.0 |
| 20260504022512 | 69 | 205 | 4.0 | 8.0 | 0.00 | 0.00 | 0.00 | 52 | 1010.0 |
| 20260504022014 | 69 | 206 | 6.0 | 9.0 | 0.00 | 0.00 | 0.00 | 51 | 1010.0 |
| 20260504021513 | 69 | 199 | 4.0 | 5.0 | 0.00 | 0.00 | 0.00 | 51 | 1010.0 |
| 20260504021013 | 69 | 199 | 6.0 | 7.0 | 0.00 | 0.00 | 0.00 | 51 | 1010.0 |
| 20260504020513 | 69 | 194 | 5.0 | 7.0 | 0.00 | 0.00 | 0.00 | 51 | 1010.0 |
| 20260504020013 | 69 | 205 | 4.0 | 5.0 | 0.00 | 0.00 | 0.00 | 51 | 1010.0 |
| 20260504015512 | 69 | 202 | 4.0 | 7.0 | 0.00 | 0.00 | 0.00 | 50 | 1009.0 |
| 20260504015013 | 70 | 214 | 6.0 | 9.0 | 0.00 | 0.00 | 0.00 | 49 | 1009.0 |
| 20260504014512 | 70 | 214 | 4.0 | 6.0 | 0.00 | 0.00 | 0.00 | 49 | 1009.0 |
| 20260504014013 | 70 | 205 | 4.0 | 8.0 | 0.00 | 0.00 | 0.00 | 49 | 1009.0 |
| 20260504013512 | 70 | 203 | 5.0 | 8.0 | 0.00 | 0.00 | 0.00 | 48 | 1009.0 |
| 20260504013013 | 71 | 207 | 5.0 | 9.0 | 0.00 | 0.00 | 0.00 | 48 | 1009.0 |
| 20260504012513 | 71 | 210 | 4.0 | 6.0 | 0.00 | 0.00 | 0.00 | 48 | 1009.0 |
| 20260504012012 | 71 | 207 | 3.0 | 4.0 | 0.00 | 0.00 | 0.00 | 47 | 1009.0 |
| 20260504011512 | 71 | 205 | 4.0 | 9.0 | 0.00 | 0.00 | 0.00 | 47 | 1009.0 |
| 20260504011012 | 72 | 210 | 3.0 | 4.0 | 0.00 | 0.00 | 0.00 | 47 | 1009.0 |
| 20260504010513 | 72 | 203 | 5.0 | 6.0 | 0.00 | 0.00 | 0.00 | 46 | 1009.0 |
| 20260504010012 | 72 | 206 | 4.0 | 8.0 | 0.00 | 0.00 | 0.00 | 46 | 1009.0 |
| 20260504005514 | 73 | 207 | 3.0 | 4.0 | 0.00 | 0.00 | 0.00 | 45 | 1009.0 |
| 20260504005012 | 73 | 216 | 5.0 | 9.0 | 0.00 | 0.00 | 0.00 | 45 | 1009.0 |
| 20260504004512 | 73 | 209 | 4.0 | 5.0 | 0.00 | 0.00 | 0.00 | 44 | 1009.0 |
| 20260504004013 | 74 | 226 | 4.0 | 6.0 | 0.00 | 0.00 | 0.00 | 44 | 1009.0 |
| 20260504003512 | 74 | 222 | 6.0 | 9.0 | 0.00 | 0.00 | 0.00 | 43 | 1009.0 |
| 20260504003013 | 74 | 218 | 4.0 | 7.0 | 0.00 | 0.00 | 0.00 | 43 | 1009.0 |
| 20260504002512 | 74 | 220 | 6.0 | 8.0 | 0.00 | 0.00 | 0.00 | 43 | 1009.0 |
| 20260504002012 | 74 | 207 | 4.0 | 4.0 | 0.00 | 0.00 | 0.00 | 43 | 1009.0 |
| 20260504001512 | 74 | 214 | 4.0 | 6.0 | 0.00 | 0.00 | 0.00 | 42 | 1009.0 |
| 20260504001012 | 75 | 206 | 2.0 | 5.0 | 0.00 | 0.00 | 0.00 | 42 | 1009.0 |
| 20260504000513 | 75 | 222 | 4.0 | 8.0 | 0.00 | 0.00 | 0.00 | 42 | 1009.0 |
| 20260504000012 | 75 | 224 | 6.0 | 9.0 | 0.00 | 0.00 | 0.00 | 41 | 1009.0 |
| 20260503235512 | 75 | 213 | 3.0 | 7.0 | 0.00 | 0.00 | 0.00 | 42 | 1009.0 |
| 20260503235012 | 75 | 220 | 7.0 | 10.0 | 0.00 | 0.00 | 0.00 | 41 | 1009.0 |
| 20260503234515 | 75 | 233 | 3.0 | 6.0 | 0.00 | 0.00 | 0.00 | 40 | 1009.0 |
| 20260503234013 | 75 | 231 | 3.0 | 8.0 | 0.00 | 0.00 | 0.00 | 41 | 1010.0 |
| 20260503233512 | 76 | 207 | 6.0 | 9.0 | 0.00 | 0.00 | 0.00 | 40 | 1009.0 |
| 20260503233012 | 76 | 216 | 5.0 | 8.0 | 0.00 | 0.00 | 0.00 | 39 | 1010.0 |
| 20260503232512 | 76 | 233 | 2.0 | 6.0 | 0.00 | 0.00 | 0.00 | 39 | 1009.0 |
| 20260503232013 | 76 | 226 | 3.0 | 5.0 | 0.00 | 0.00 | 0.00 | 38 | 1010.0 |
| 20260503231512 | 77 | 221 | 5.0 | 11.0 | 0.00 | 0.00 | 0.00 | 38 | 1010.0 |
| 20260503231013 | 77 | 229 | 1.0 | 3.0 | 0.00 | 0.00 | 0.00 | 38 | 1010.0 |
| 20260503230513 | 77 | 210 | 1.0 | 3.0 | 0.00 | 0.00 | 0.00 | 37 | 1010.0 |
| 20260503230014 | 77 | 229 | 4.0 | 6.0 | 0.00 | 0.00 | 0.00 | 37 | 1010.0 |
| 20260503225512 | 77 | 131 | 2.0 | 4.0 | 0.00 | 0.00 | 0.00 | 39 | 1010.0 |
| 20260503225014 | 77 | 218 | 4.0 | 10.0 | 0.00 | 0.00 | 0.00 | 37 | 1010.0 |
| 20260503224512 | 77 | 240 | 4.0 | 8.0 | 0.00 | 0.00 | 0.00 | 36 | 1010.0 |
| 20260503224012 | 77 | 232 | 5.0 | 10.0 | 0.00 | 0.00 | 0.00 | 36 | 1010.0 |
| 20260503223513 | 77 | 216 | 4.0 | 8.0 | 0.00 | 0.00 | 0.00 | 36 | 1010.0 |
| 20260503223013 | 77 | 251 | 1.0 | 4.0 | 0.00 | 0.00 | 0.00 | 37 | 1010.0 |
| 20260503222512 | 77 | 215 | 7.0 | 11.0 | 0.00 | 0.00 | 0.00 | 35 | 1010.0 |
| 20260503222012 | 77 | 215 | 4.0 | 7.0 | 0.00 | 0.00 | 0.00 | 35 | 1010.0 |
| 20260503221513 | 77 | 222 | 3.0 | 6.0 | 0.00 | 0.00 | 0.00 | 36 | 1010.0 |
| 20260503221013 | 77 | 232 | 7.0 | 11.0 | 0.00 | 0.00 | 0.00 | 35 | 1010.0 |
| 20260503220512 | 77 | 224 | 8.0 | 16.0 | 0.00 | 0.00 | 0.00 | 35 | 1010.0 |
| 20260503220013 | 77 | 207 | 6.0 | 10.0 | 0.00 | 0.00 | 0.00 | 35 | 1010.0 |
| 20260503215512 | 77 | 219 | 4.0 | 11.0 | 0.00 | 0.00 | 0.00 | 35 | 1010.0 |
| 20260503215012 | 76 | 216 | 5.0 | 8.0 | 0.00 | 0.00 | 0.00 | 35 | 1010.0 |
| 20260503214512 | 76 | 224 | 6.0 | 10.0 | 0.00 | 0.00 | 0.00 | 35 | 1010.0 |
| 20260503214012 | 76 | 207 | 6.0 | 9.0 | 0.00 | 0.00 | 0.00 | 35 | 1010.0 |
| 20260503213512 | 76 | 216 | 6.0 | 12.0 | 0.00 | 0.00 | 0.00 | 35 | 1010.0 |
| 20260503213013 | 76 | 230 | 6.0 | 9.0 | 0.00 | 0.00 | 0.00 | 36 | 1010.0 |
| 20260503212512 | 76 | 228 | 9.0 | 18.0 | 0.00 | 0.00 | 0.00 | 35 | 1010.0 |
| 20260503212013 | 76 | 227 | 9.0 | 16.0 | 0.00 | 0.00 | 0.00 | 35 | 1010.0 |
| 20260503211512 | 76 | 213 | 3.0 | 7.0 | 0.00 | 0.00 | 0.00 | 37 | 1010.0 |
| 20260503211013 | 76 | 232 | 5.0 | 9.0 | 0.00 | 0.00 | 0.00 | 36 | 1010.0 |
| 20260503210512 | 76 | 220 | 6.0 | 11.0 | 0.00 | 0.00 | 0.00 | 36 | 1011.0 |
| 20260503210012 | 76 | 213 | 10.0 | 13.0 | 0.00 | 0.00 | 0.00 | 35 | 1011.0 |
| 20260503205512 | 76 | 215 | 6.0 | 9.0 | 0.00 | 0.00 | 0.00 | 36 | 1011.0 |
| 20260503205013 | 75 | 218 | 6.0 | 8.0 | 0.00 | 0.00 | 0.00 | 37 | 1011.0 |
| 20260503204512 | 75 | 240 | 3.0 | 6.0 | 0.00 | 0.00 | 0.00 | 38 | 1011.0 |
| 20260503204012 | 75 | 227 | 8.0 | 12.0 | 0.00 | 0.00 | 0.00 | 37 | 1011.0 |
| 20260503203513 | 74 | 217 | 6.0 | 10.0 | 0.00 | 0.00 | 0.00 | 38 | 1011.0 |
| 20260503203014 | 74 | 228 | 11.0 | 22.0 | 0.00 | 0.00 | 0.00 | 38 | 1011.0 |
| 20260503202512 | 74 | 211 | 8.0 | 12.0 | 0.00 | 0.00 | 0.00 | 38 | 1011.0 |
| 20260503202013 | 74 | 213 | 8.0 | 11.0 | 0.00 | 0.00 | 0.00 | 38 | 1011.0 |
| 20260503201512 | 74 | 228 | 9.0 | 14.0 | 0.00 | 0.00 | 0.00 | 38 | 1012.0 |
| 20260503201012 | 74 | 228 | 8.0 | 16.0 | 0.00 | 0.00 | 0.00 | 39 | 1011.0 |
| 20260503200513 | 74 | 221 | 8.0 | 12.0 | 0.00 | 0.00 | 0.00 | 39 | 1012.0 |
| 20260503200014 | 73 | 225 | 6.0 | 13.0 | 0.00 | 0.00 | 0.00 | 39 | 1012.0 |
| 20260503195512 | 73 | 216 | 8.0 | 15.0 | 0.00 | 0.00 | 0.00 | 39 | 1012.0 |
| 20260503195013 | 73 | 230 | 5.0 | 10.0 | 0.00 | 0.00 | 0.00 | 39 | 1012.0 |
| 20260503194512 | 73 | 223 | 9.0 | 12.0 | 0.00 | 0.00 | 0.00 | 39 | 1012.0 |
| 20260503194012 | 73 | 221 | 11.0 | 15.0 | 0.00 | 0.00 | 0.00 | 38 | 1012.0 |
| 20260503193513 | 73 | 226 | 5.0 | 11.0 | 0.00 | 0.00 | 0.00 | 40 | 1013.0 |
| 20260503193013 | 72 | 229 | 5.0 | 8.0 | 0.00 | 0.00 | 0.00 | 41 | 1013.0 |
| 20260503192512 | 72 | 221 | 7.0 | 12.0 | 0.00 | 0.00 | 0.00 | 39 | 1013.0 |
| 20260503192013 | 72 | 191 | 8.0 | 13.0 | 0.00 | 0.00 | 0.00 | 39 | 1013.0 |
| 20260503191512 | 71 | 215 | 6.0 | 9.0 | 0.00 | 0.00 | 0.00 | 39 | 1013.0 |
| 20260503191014 | 72 | 200 | 11.0 | 15.0 | 0.00 | 0.00 | 0.00 | 39 | 1013.0 |
| 20260503190514 | 71 | 212 | 7.0 | 9.0 | 0.00 | 0.00 | 0.00 | 40 | 1013.0 |
| 20260503190013 | 71 | 206 | 7.0 | 11.0 | 0.00 | 0.00 | 0.00 | 39 | 1014.0 |
| 20260503185512 | 71 | 190 | 7.0 | 11.0 | 0.00 | 0.00 | 0.00 | 40 | 1014.0 |
| 20260503185015 | 70 | 215 | 9.0 | 12.0 | 0.00 | 0.00 | 0.00 | 39 | 1014.0 |
| 20260503184513 | 70 | 215 | 4.0 | 7.0 | 0.00 | 0.00 | 0.00 | 41 | 1014.0 |
| 20260503184013 | 70 | 229 | 7.0 | 12.0 | 0.00 | 0.00 | 0.00 | 40 | 1014.0 |
| 20260503183513 | 70 | 197 | 6.0 | 11.0 | 0.00 | 0.00 | 0.00 | 40 | 1014.0 |
| 20260503183014 | 69 | 192 | 6.0 | 11.0 | 0.00 | 0.00 | 0.00 | 40 | 1014.0 |
| 20260503182512 | 70 | 219 | 8.0 | 11.0 | 0.00 | 0.00 | 0.00 | 39 | 1015.0 |
| 20260503182013 | 69 | 188 | 4.0 | 7.0 | 0.00 | 0.00 | 0.00 | 40 | 1015.0 |
| 20260503181513 | 69 | 186 | 7.0 | 9.0 | 0.00 | 0.00 | 0.00 | 39 | 1015.0 |
| 20260503181013 | 69 | 212 | 5.0 | 12.0 | 0.00 | 0.00 | 0.00 | 40 | 1015.0 |
| 20260503180512 | 69 | 191 | 4.0 | 7.0 | 0.00 | 0.00 | 0.00 | 40 | 1015.0 |